Location: Harrison
(47.4490°N, 116.7734°W)
Time: 16:33:25
(UTC+00:00)

DOVE 4 - Visible Passes

Search period start: 08 September 2024 00:00
Search period end: 18 September 2024 00:00
Orbit: 580 x 774 km, 97.7° (Epoch: 08 September)

Date Brightness Start Highest point End Pass type
(mag) Time Alt. Az. Time Alt. Az. Time Alt. Az.
08 Sep ? 03:43:44 10° NE 03:45:32 15° ENE 03:45:32 15° ENE visible
08 Sep ? 05:19:29 10° N 05:23:54 68° NNW 05:23:54 68° NNW visible
08 Sep ? 06:58:48 10° NNW 07:00:58 13° WNW 07:02:15 12° WNW visible
09 Sep ? 04:17:32 10° NNE 04:20:44 28° ENE 04:20:44 28° ENE visible
09 Sep ? 05:54:41 10° N 05:59:06 39° WNW 05:59:06 39° WNW visible
10 Sep ? 04:52:05 10° NNE 04:55:56 49° NE 04:55:56 49° NE visible
10 Sep ? 06:30:15 10° NNW 06:33:55 21° WNW 06:34:16 21° WNW visible
11 Sep ? 03:50:49 10° NE 03:52:44 16° ENE 03:52:44 16° ENE visible
11 Sep ? 05:27:00 10° N 05:31:05 55° NNW 05:31:05 55° NNW visible
11 Sep ? 07:06:51 10° NW 07:08:22 11° NW 07:09:26 11° WNW visible
12 Sep ? 04:24:51 10° NNE 04:27:53 29° ENE 04:27:53 29° ENE visible
12 Sep ? 06:02:13 10° N 06:06:14 33° NW 06:06:14 33° NW visible
13 Sep ? 04:59:27 10° NNE 05:03:00 45° NNE 05:03:00 45° NNE visible
13 Sep ? 06:37:51 10° NNW 06:41:16 19° WNW 06:41:21 19° WNW visible
14 Sep ? 03:57:54 10° NE 03:59:46 17° ENE 03:59:46 17° ENE visible
14 Sep ? 05:34:24 10° N 05:38:06 44° NNW 05:38:06 44° NNW visible
15 Sep ? 04:32:04 10° NNE 04:34:51 29° NE 04:34:51 29° NE visible
15 Sep ? 06:09:39 10° N 06:13:12 28° NW 06:13:12 28° NW visible
16 Sep ? 05:06:43 10° NNE 05:09:55 40° NNE 05:09:55 40° NNE visible
16 Sep ? 06:45:23 10° NNW 06:48:15 16° NW 06:48:15 16° NW visible
17 Sep ? 04:04:54 10° NE 04:06:38 18° NE 04:06:38 18° NE visible
17 Sep ? 05:41:41 10° N 05:44:58 36° NNW 05:44:58 36° NNW visible
